Powrót do katalogu

STARLINK-37187

AktywnyŁącznośćSSO
NORAD 68399·PAYLOAD·🇺🇸 United States

Wystrzelony Mar 26, 2026 z Vandenberg Space Force Base

Loading…

Następne Przeloty (najbliższe 24 godziny)

TLE

ŚwieżeSource: CelesTrak SupGP

Epoka: Sep 14, 2026, 22:39 UTC

1 68399C 26063V   26257.94423611 -.00012692  00000+0 -39395-3 0  2574
2 68399  97.2864  38.9751 0000846  93.7624 248.6495 15.33448952    18

Śledź STARLINK-37187 w czasie rzeczywistym z AllMySat

Download on the App Store